Location: Voyageurs National Park
(48.5020°N, 92.9292°W)
Time: 03:39:32
(UTC-05:00)

Daily predictions for brighter satellites

Satellite Brightness Start Highest point End
(mag) Time Altitude Azimuth Time Altitude Azimuth Time Altitude Azimuth
ERBS 2.6 00:00:14 10° WSW 00:03:43 69° NNW 00:07:11 10° NE
Cosmos 44 Rocket 3.8 00:02:33 27° S 00:04:57 46° ESE 00:09:58 10° NE
CZ-2C R/B 4.5 00:03:47 10° NE 00:06:49 15° E 00:08:48 13° ESE
H-2A R/B 3.6 00:04:07 10° NNE 00:07:54 31° E 00:09:09 26° SE
Terra 3.5 00:05:35 13° SW 00:08:52 24° W 00:12:46 10° NW
Aureole 2 Rocket 2.2 00:08:10 10° NNW 00:11:18 83° ENE 00:12:08 48° SSE
Cosmos 1340 Rocket 3.8 00:10:33 27° ESE 00:11:30 30° E 00:14:59 10° NNE
Cosmos 2297 Rocket 2.6 00:05:59 10° SW 00:11:36 65° WNW 00:17:16 10° NNE
Cosmos 2219 Rocket 4.4 00:09:35 10° WNW 00:12:34 15° W 00:15:32 10° SW
Cosmos 1733 Rocket 4.0 00:14:20 27° SE 00:15:51 35° E 00:19:56 10° NNE
Cosmos 1869 Rocket 3.8 00:13:38 26° SSW 00:16:06 70° WNW 00:20:35 10° N
Cosmos 1943 4.1 00:13:23 10° NNW 00:18:49 43° NE 00:23:07 15° ESE
ATLAS 2AS CENTAUR R/B 3.2 00:11:57 10° SW 00:19:38 77° NW 00:27:50 10° NE
CZ-4C R/B 3.0 00:19:37 43° SSE 00:20:39 76° ENE 00:24:17 10° N
Helios 1A Rocket 4.4 00:17:28 10° NE 00:20:50 23° E 00:21:50 21° ESE
COS B Rocket 4.0 00:17:38 10° N 00:21:18 48° W 00:23:17 26° SW
BREEZE-M TANK 3.2 00:11:58 10° WSW 00:23:27 62° S 00:26:47 10° E
ATLAS 3B R/B 3.4 00:22:55 10° NW 00:29:15 38° WSW 00:32:31 24° SSW
Cosmos 1603 3.7 00:25:14 10° NNW 00:30:56 81° WSW 00:33:53 30° SSE
ALOS 2 2.5 00:30:07 36° SSE 00:31:55 84° ENE 00:36:20 10° NNW
Coronas F rocket 2.6 00:33:07 29° E 00:33:07 29° E 00:35:16 10° NNE
Cosmos 1606 4.1 00:29:58 10° N 00:33:24 29° ENE 00:34:52 23° ESE
Uosat 12 SS-18 rocket 4.5 00:32:04 34° S 00:33:42 49° ESE 00:38:00 10° NE
Okean 1-7 3.9 00:29:56 10° NNW 00:33:57 40° W 00:35:44 26° SW
Cosmos 1689 Rocket 2.4 00:36:12 52° SE 00:36:51 72° ENE 00:40:10 10° N
Meteor 2-6 Rocket 4.5 00:35:15 10° N 00:41:05 68° ENE 00:44:18 28° SSE
USA 238 DEB 3.9 00:35:01 10° NW 00:41:56 61° WSW 00:45:45 28° SSE
USA 238 3.9 00:35:07 10° NW 00:42:02 62° WSW 00:45:52 28° SSE
Cosmos 2237 Rocket 4.4 00:43:31 10° WNW 00:45:39 12° W 00:47:47 10° WSW
Cosmos 2251 Rocket 3.8 00:45:29 10° NNW 00:50:43 56° WSW 00:52:57 32° S
Cosmos 1892 2.6 00:52:20 46° SSW 00:53:22 85° W 00:57:12 10° N
NOSS 2-3 (E) 4.2 00:49:52 17° SW 00:53:49 79° NW 00:59:51 10° NE
Cosmos 1408 4.2 00:55:31 22° ESE 00:56:22 24° E 00:59:26 10° NE
Cosmos 2084 Rocket 3.0 00:57:28 45° SSW 00:58:34 76° SE 01:02:22 10° NE
Cosmos 1674 Rocket 3.6 00:56:59 10° NNW 01:01:25 75° W 01:02:59 39° S
CENTAUR R/B 4.2 00:55:47 10° NW 01:02:46 40° NNE 01:10:18 10° E
Cosmos 44 3.6 01:00:25 33° S 01:02:46 62° ESE 01:08:10 10° NE
Cosmos 921 Rocket 3.1 01:02:02 42° SSE 01:03:11 59° ESE 01:07:21 10° NNE
Nadezhda 3 Rocket 4.0 00:59:22 10° N 01:05:37 84° W 01:08:56 30° S
Cosmos 1238 Rocket 2.7 01:02:53 10° N 01:06:56 68° E 01:07:47 47° SE
SeaSat 1 3.5 01:06:12 25° SW 01:07:44 30° WSW 01:12:05 10° NW
Cosmos 494 Rocket 4.2 01:02:55 10° NNW 01:08:05 57° WSW 01:10:13 33° S
USA 234 4.0 01:01:59 10° E 01:08:19 55° NNE 01:14:41 10° NW
Cosmos 1607 4.1 01:03:44 10° NW 01:09:45 56° WSW 01:12:34 31° S
Lacrosse 4 Rocket 3.8 01:08:50 10° W 01:10:23 12° WSW 01:11:13 11° WSW
Meteor 2-3 Rocket 4.4 01:07:29 21° SW 01:11:08 49° WNW 01:16:41 10° N
CZ-4B R/B 2.2 01:10:53 35° WSW 01:11:23 37° W 01:14:36 10° NNW
BREEZE-M DEB (TANK) 2.0 01:11:12 30° WSW 01:12:27 85° SSE 01:18:35 10° ENE
Cosmos 1975 Rocket 3.6 01:08:29 10° N 01:12:47 49° ENE 01:14:38 29° SE
Cosmos 1867 3.7 01:07:32 10° NW 01:13:04 77° NE 01:16:46 21° SE
Cosmos 1825 3.0 01:13:16 32° SE 01:14:10 38° E 01:17:43 10° NNE
ASTEX 1 3.8 01:09:49 10° N 01:14:36 55° W 01:16:55 29° SW
Cosmos 1356 Rocket 3.4 01:13:59 42° SSW 01:15:17 75° WNW 01:19:25 10° N
NOSS 3-2 (C) 3.9 01:08:13 10° NW 01:15:37 90° SW 01:22:14 16° SE
CZ-2C R/B 3.6 01:12:41 24° SE 01:16:09 60° ENE 01:21:36 10° N
GEOS 3 Rocket 4.3 01:19:32 31° SSW 01:21:05 37° WSW 01:25:54 10° NW
Cosmos 1908 Rocket 3.5 01:21:52 41° S 01:23:20 79° E 01:27:41 10° NNE
MOS 1-B Rocket 3.9 01:25:22 31° S 01:28:07 69° WSW 01:33:45 10° NNW
Cosmos 2263 Rocket 2.7 01:27:59 30° SSE 01:30:21 46° ESE 01:35:46 10° NE
Cosmos 1242 Rocket 4.1 01:28:05 10° N 01:31:09 27° ENE 01:32:43 20° ESE
Okean 3 3.4 01:31:11 10° N 01:35:32 86° W 01:37:03 40° S
NOSS 3-2 (A) 4.0 01:30:35 10° NW 01:37:53 63° SW 01:43:00 23° SSE
Cosmos 1782 3.9 01:35:13 10° NNW 01:38:44 31° W 01:39:44 27° WSW
Cosmos 2154 Rocket 4.3 01:35:33 26° SSW 01:39:10 61° WNW 01:45:25 10° N
NOSS 3-4 (A) 3.7 01:38:07 29° SSW 01:41:23 60° ESE 01:47:54 10° NE
NOSS 3-4 (C) 3.7 01:38:14 29° S 01:41:29 60° ESE 01:47:59 10° NE
ATLAS 5 CENTAUR R/B 4.3 01:37:47 10° NNW 01:42:44 29° NNE 01:48:01 10° E
CZ-4C R/B 3.1 01:36:01 10° NW 01:42:46 51° WSW 01:46:52 26° S
H-2A R/B 4.0 01:39:44 10° N 01:43:26 30° WNW 01:45:48 18° WSW
CZ-2C R/B 2.5 01:42:31 10° NNE 01:47:47 81° WNW 01:50:19 31° SSW
COSMOS 2406 3.8 01:47:20 10° NNW 01:53:03 58° ENE 01:58:33 11° SE
Cosmos 2151 Rocket 4.5 01:53:53 25° SE 01:55:53 40° E 02:00:05 10° NNE
Helios 1A Rocket 4.0 01:52:20 10° N 01:56:13 38° WNW 01:58:09 24° WSW
Cosmos 1190 Rocket 4.3 01:51:10 10° NNW 01:56:23 63° ENE 02:00:14 18° SE
Cosmos 1378 Rocket 4.5 01:57:58 10° NNW 02:01:59 35° W 02:03:20 28° SW
BREEZE-M DEB (TANK) 3.8 01:46:07 10° WSW 02:02:29 75° SSE 02:06:43 10° ENE
Cosmos 1943 3.9 01:57:37 10° NW 02:02:48 37° WSW 02:04:54 28° SSW
Coronas F rocket 4.1 02:04:13 11° W 02:04:46 11° WNW 02:05:38 10° NW
Cosmos 1606 4.2 02:06:00 10° NW 02:09:07 24° W 02:09:59 22° WSW
Cosmos 1371 Rocket 4.1 02:07:07 30° S 02:09:46 70° ESE 02:15:06 10° NNE
Cosmos 407 Rocket 3.8 02:04:58 10° NNW 02:10:07 66° ENE 02:14:14 16° SE
Cosmos 2056 Rocket 3.9 02:08:09 28° S 02:10:43 53° ESE 02:15:49 10° NNE
RESURS DK-1 2.5 02:09:47 38° S 02:11:14 65° ESE 02:15:23 10° NE
Landsat 4 4.4 02:15:01 21° SE 02:17:16 50° ENE 02:20:58 10° N
Abrixas rocket 2.7 02:17:34 40° SSE 02:17:34 40° SSE 02:20:40 10° E
Cosmos 676 Rocket 4.4 02:15:21 10° NNW 02:20:32 62° ENE 02:25:16 12° SE
SL-8 Rocket 4.3 02:20:03 25° SSW 02:23:49 59° WNW 02:30:06 10° N
Cosmos 1339 Rocket 4.4 02:21:01 10° N 02:27:09 80° W 02:31:03 23° S
SL-27 R/B 2.7 02:23:29 10° NNW 02:27:09 70° ENE 02:29:13 24° SSE
SL-08 R/B 4.2 02:23:18 11° SE 02:27:46 49° ENE 02:32:28 10° N
Meteor 2-8 Rocket 4.5 02:23:49 10° NNW 02:29:53 70° W 02:33:40 24° S
Meteor 1-14 Rocket 4.3 02:26:24 26° SSW 02:29:55 87° W 02:35:49 10° N
SL-16 R/B 4.4 02:25:40 10° ESE 02:30:47 28° ENE 02:35:54 10° N
Cosmos 1408 4.1 02:30:02 21° WSW 02:31:29 28° WNW 02:34:46 10° NNW
Okean 2 Rocket 3.9 02:32:28 24° SW 02:34:38 40° WNW 02:38:54 10° N
Cosmos 2218 Rocket 4.3 02:31:58 24° SSW 02:35:49 58° WNW 02:42:06 10° N
Iridium 4 Rocket 3.3 02:32:32 10° N 02:37:14 81° W 02:40:12 25° S
ERS-2 3.7 02:39:47 10° NE 02:43:04 29° E 02:45:16 16° SSE
Cosmos 1954 Rocket 4.1 02:41:04 10° NNW 02:46:16 78° ENE 02:51:23 10° SSE
Cosmos 1184 Rocket 3.8 02:45:25 27° WSW 02:46:34 37° WNW 02:49:43 10° N
Cosmos 2366 rocket 4.4 02:44:07 22° SW 02:47:59 53° WNW 02:54:05 10° N
Cosmos 909 Rocket 4.3 02:43:36 22° SSW 02:48:04 84° ESE 02:55:49 10° NE
Cosmos 1825 4.2 02:48:13 14° WSW 02:49:59 19° WNW 02:52:43 10° NNW
JB-3 4.2 02:46:28 10° NNE 02:50:21 88° ESE 02:52:19 28° SSW
Meteor 1-18 Rocket 4.3 02:45:04 10° NNW 02:50:40 64° W 02:54:31 21° S
USA 234 3.2 02:44:43 10° SE 02:51:14 71° SW 02:57:48 10° WNW
Cosmos 1300 Rocket 3.8 02:50:51 22° S 02:53:30 65° E 02:57:52 10° NNE
CENTAUR R/B 3.0 02:46:30 10° NW 02:54:13 80° SW 03:02:29 10° SSE
Cosmos 1624 Rocket 4.2 02:51:36 23° SW 02:54:51 65° WNW 03:00:07 10° NNE
Cosmos 1812 2.7 02:53:51 10° NNW 02:57:44 67° W 02:59:49 26° S
Gbstr 26 Del rocket 3.7 03:00:16 24° S 03:01:39 31° SE 03:05:01 10° E
Cosmos 1536 Rocket 4.3 02:58:26 10° NNW 03:02:30 38° W 03:04:37 23° SW
IRAS Rocket 4.4 02:58:45 10° NNE 03:04:17 71° ESE 03:08:26 18° S
USA 161 3.3 03:01:50 10° SE 03:04:26 30° ENE 03:07:08 10° N
Cosmos 1242 Rocket 4.0 03:03:24 10° NW 03:06:05 21° W 03:06:54 19° WSW
Meteor 1-20 Rocket 4.3 03:03:18 20° SSW 03:07:26 84° WNW 03:13:14 10° N
Cosmos 1844 Rocket 2.9 03:06:36 19° S 03:10:37 65° ESE 03:16:15 10° NNE
Cosmos 1023 Rocket 4.4 03:07:44 10° NNW 03:12:53 87° ENE 03:17:58 10° SSE
ARIANE 5 R/B 3.9 03:08:34 10° NNE 03:13:02 31° E 03:17:28 10° SSE
Cosmos 2263 Rocket 3.3 03:09:40 12° WSW 03:14:26 36° NW 03:19:40 10° NNE
Cosmos 1452 Rocket 3.5 03:12:45 20° SSW 03:16:28 84° ESE 03:21:46 10° NNE
IRS-P3 4.2 03:12:24 10° NNE 03:17:47 78° WNW 03:21:48 18° SSW
Meteor 1-13 Rocket 4.2 03:15:08 10° NNW 03:20:49 79° W 03:26:30 11° S
Meteor 1-11 Rocket 4.2 03:15:58 13° S 03:21:15 66° E 03:27:10 10° NNE
Resurs 1-4 Rocket 3.7 03:17:12 10° NNE 03:21:52 30° E 03:26:28 10° SSE
Cosmos 1461 4.2 03:19:20 15° S 03:22:38 35° ESE 03:26:50 10° NE
CBERS-1 4.0 03:18:09 10° NNE 03:23:21 87° ESE 03:27:27 16° SSW
Cosmos 1844 4.0 03:20:36 16° S 03:25:04 63° ESE 03:30:47 10° NNE
ATLAS 5 CENTAUR R/B 2.4 03:22:16 10° NW 03:28:09 88° NE 03:34:31 10° SE
SL-24 DEB 4.5 03:23:39 10° N 03:28:12 56° W 03:31:36 18° SSW
Okean 1 4.1 03:24:46 10° NNW 03:28:26 35° W 03:30:43 19° SSW
ADEOS 3.7 03:28:00 10° NNE 03:33:16 75° ESE 03:37:58 13° S
Cosmos 1140 Rocket 3.5 03:29:08 10° NNW 03:34:14 64° WSW 03:39:18 10° S
Meteor 1-23 Rocket 4.5 03:28:51 10° N 03:34:36 72° ENE 03:40:14 10° SSE
Cosmos 1400 Rocket 3.9 03:30:57 10° SSE 03:34:37 40° E 03:38:20 10° NNE
Cosmos 1934 Rocket 4.0 03:29:13 14° S 03:34:41 85° W 03:40:52 10° N
COSMOS 2487 2.5 03:31:54 10° NNW 03:35:31 65° WSW 03:39:05 10° S
COSMOS 2406 4.3 03:32:17 10° NW 03:37:01 27° WSW 03:40:33 15° SSW
Okean 1-7 Rocket 4.2 03:32:53 10° NNW 03:37:11 41° W 03:40:29 16° SSW
Cosmos 2278 Rocket 2.7 03:32:42 13° S 03:37:40 54° ESE 03:43:13 10° NE
Cosmos 1633 3.2 03:34:35 12° S 03:37:50 53° E 03:41:25 10° NNE
Okean 1 Rocket 3.5 03:35:29 17° SSW 03:38:41 51° WNW 03:43:05 10° N
NOSS 2-2 (D) 4.0 03:36:10 16° SSW 03:39:21 56° ESE 03:44:14 10° NE
UNK 4.2 03:37:45 10° SSE 03:42:20 65° ENE 03:46:58 10° N
Timation 2 Rocket 3.9 03:39:38 10° NNW 03:45:52 86° WSW 03:51:52 10° SSE
Meteor 2-15 Rocket 4.5 03:40:49 10° NNW 03:46:59 78° W 03:53:07 10° S
RESURS DK-1 4.5 03:46:43 10° W 03:49:44 19° NW 03:52:46 10° N
Okean O Rocket 3.9 03:48:18 10° NE 03:51:35 20° E 03:54:50 10° SE
Cosmos 1602 3.8 03:48:58 15° SSW 03:52:04 61° W 03:55:54 10° N
Cosmos 2082 Rocket 2.7 03:46:50 10° NNW 03:52:34 65° ENE 03:58:14 10° SE
Cosmos 1025 Rocket 3.2 03:48:35 10° NNW 03:52:48 55° W 03:57:00 10° S
NOSS 2-2 (C) 3.7 03:50:13 15° SSW 03:53:45 74° SE 03:58:48 10° NE
Abrixas rocket 2.2 03:51:03 10° W 03:54:26 88° SSE 03:57:48 10° E
Cosmos 1850 Rocket 4.1 03:49:24 10° NNW 03:54:32 57° WSW 03:59:40 10° S
Cosmos 1741 Rocket 4.2 03:52:25 10° NNW 03:57:35 55° WSW 04:02:41 10° S
GP-B 4.3 03:57:08 10° NNW 04:00:57 28° WNW 04:04:25 12° SW
Cosmos 1455 Rocket 3.6 03:57:12 10° S 04:01:35 61° E 04:05:59 10° NNE
Spot 4 Rocket 4.1 03:58:31 10° N 04:03:40 71° WNW 04:08:47 10° SSW
Cosmos 1315 Rocket 3.6 03:59:48 10° S 04:03:45 52° E 04:07:40 10° NNE
USA 129 4.3 04:03:09 10° SE 04:04:49 21° ENE 04:06:25 10° NNE
Meteor 2-4 Rocket 3.7 03:59:29 10° NNW 04:04:51 64° W 04:10:07 10° S
BREEZE-M DEB (TANK) 3.5 03:56:17 10° W 04:09:51 89° N 04:13:28 10° ESE
Cosmos 1605 Rocket 4.1 04:06:33 10° SSW 04:12:41 64° WNW 04:18:57 10° N
SL-16 R/B 2.6 04:07:49 10° S 04:14:00 65° WSW 04:20:12 10° NNW
ERS-2 3.6 04:13:42 10° N 04:16:47 25° WNW 04:19:52 10° WSW
NOSS 2-2 (E) 4.0 04:14:37 10° SW 04:18:58 69° NW 04:24:19 10° NE
OPS 6432 4.2 04:16:49 10° SW 04:20:00 82° NW 04:23:09 10° NE
Cosmos 1975 4.1 04:17:45 10° SSE 04:21:30 40° E 04:25:15 10° NNE
SME Rocket 3.2 04:18:33 10° S 04:22:14 54° WSW 04:26:43 10° NNW
IRS-1D 3.5 04:18:11 10° N 04:23:17 73° WNW 04:28:15 10° SSW
UNKNOWN OBJECT B 3.2 04:19:49 10° NNE 04:23:56 72° E 04:28:00 10° S
Okean 2 3.7 04:20:21 10° NNW 04:24:18 48° W 04:28:15 10° SSW
CZ-2D R/B 2.3 04:19:14 10° NNE 04:24:43 88° WNW 04:30:13 10° SSW
Cosmos 1544 Rocket 3.8 04:23:06 10° SSW 04:27:26 55° WNW 04:31:46 10° N
APEX 3.9 04:25:22 10° S 04:28:11 40° ESE 04:31:37 10° NE
Cosmos 1536 3.8 04:27:06 10° SW 04:30:49 33° WNW 04:34:33 10° N
Cosmos 1833 Rocket 2.7 04:26:51 10° NNW 04:32:31 84° WSW 04:38:07 10° SSE
MTI 4.1 04:30:26 10° S 04:33:39 50° W 04:36:54 10° NNW
USA 234 4.3 04:30:11 10° S 04:35:02 22° SW 04:39:55 10° WNW
CZ-2C R/B 3.9 04:30:32 10° SSE 04:35:18 87° ENE 04:40:07 10° NNW
